Location: Dalton
(34.7700°N, 84.9700°W)
Time: 12:06:38
(UTC-04:00)

Tiangong 2 - Pass Details

Date: 12 October 2017
Orbit: 388 x 392 km, 42.8° (Epoch: 20 October)

Event Time Altitude Azimuth Distance (km) Brightness Sun altitude
Exits shadow 06:48:33 14° 313° (NW) 1,215 3.1 -12.0°
Maximum altitude 06:50:17 20° 353° (N) 968 3.0 -11.7°
Drops below altitude 10° 06:52:46 10° 44° (NE) 1,422 4.6 -11.2°
Sets 06:55:12 0° 62° (ENE) 2,278 6.1 -10.7°
